Location: Unspecified
(0.0000°N, 0.0000°E)
Time: 08:34:01
(UTC+00:00)

Vanguard 1 - Pass Details

Date: 17 December 2017
Orbit: 650 x 3833 km, 34.3° (Epoch: 20 June)

Event Time Altitude Azimuth Distance (km) Brightness Sun altitude
Rises 07:24:42 0° 259° (W) 7,361 14.1 20.2°
Reaches altitude 10° 07:30:03 10° 267° (W) 6,618 13.8 21.5°
Maximum altitude 07:50:14 38° 327° (NNW) 4,927 13.4 26.0°
Drops below altitude 10° 08:08:39 10° 30° (NNE) 5,975 14.2 30.1°
Sets 08:13:18 0° 39° (NE) 6,604 14.4 31.1°
